GEFSMW_500_meanwind_288.txt.gz
Wind_Speed
8 7 7 7 7 7 8 7 7 7 8 8 8 8 8 7 7 8 8 7 8 9 9 9 10 9 10 10 11 11 11 11 12 12 12 12 13 13 13 14 15 15 16
8 8 8 8 9 9 9 9 8 8 9 9 9 9 9 9 9 9 9 8 9 9 10 10 10 10 10 11 11 11 10 11 12 13 13 13 13 13 14 15 15 16 16
9 9 9 9 9 9 9 9 9 9 9 9 9 9 9 9 9 9 9 9 10 10 10 11 11 11 11 12 12 11 12 12 13 13 13 13 13 13 14 14 15 16 16
10 11 11 10 10 10 10 10 10 9 9 9 8 8 8 9 9 9 10 10 10 10 11 12 12 12 12 12 13 13 13 13 13 13 13 14 14 14 14 15 15 16 16
12 12 12 11 11 11 11 10 10 10 10 9 9 9 9 9 10 10 10 10 11 11 12 12 12 12 13 13 13 14 14 14 14 14 14 15 14 15 15 15 16 16 17
13 13 13 13 13 12 12 12 11 11 10 10 10 10 10 10 11 11 11 12 12 12 12 12 12 13 13 13 13 14 14 14 15 15 15 16 16 16 16 16 17 17 18
14 14 14 14 14 13 13 13 12 11 11 11 11 11 11 11 12 11 11 12 12 12 12 13 14 14 14 14 14 14 14 14 15 15 16 16 16 16 17 17 18 18 18
15 15 15 14 14 14 14 13 13 12 12 12 12 12 12 12 11 12 12 12 13 13 13 14 14 14 14 14 14 14 14 14 15 16 16 17 17 17 17 18 18 18 17
15 16 16 15 14 14 14 14 14 14 14 14 13 13 13 13 12 12 13 13 14 14 15 15 14 14 14 14 14 14 14 15 15 15 16 17 17 17 17 18 18 18 17
17 17 17 16 16 15 15 15 15 15 15 15 15 14 14 14 13 13 14 14 14 15 15 15 15 15 15 15 15 15 15 15 16 16 16 16 17 17 17 17 18 18 18
17 17 17 18 18 17 17 17 16 16 16 15 15 15 15 15 15 15 15 15 15 15 15 16 16 16 16 16 16 17 17 17 17 17 17 17 17 17 18 18 18 18 18
18 18 18 19 18 18 18 17 17 17 17 17 17 17 17 17 17 17 17 17 17 17 17 17 17 18 18 18 18 18 18 18 18 18 18 18 18 18 18 19 19 19 18
19 18 18 19 19 19 19 18 18 19 19 18 18 18 18 18 18 18 18 18 19 19 19 19 19 19 19 20 19 19 19 19 19 19 19 19 19 19 19 20 20 20 19
20 19 19 20 20 20 20 19 19 20 20 19 19 19 19 19 19 19 20 20 20 20 20 20 20 20 21 21 20 20 20 21 20 20 20 20 20 20 20 20 21 21 21
19 20 20 20 20 20 20 20 20 21 21 20 20 20 20 20 20 20 20 20 20 20 20 21 21 22 21 21 21 21 21 21 21 21 21 21 21 21 21 20 21 21 21
21 21 21 21 21 20 20 20 21 21 21 20 21 20 20 20 20 20 20 21 21 21 21 21 22 22 22 22 22 21 21 21 21 21 21 22 22 21 21 20 20 21 21
22 23 23 22 22 22 21 21 21 22 22 22 21 21 21 21 21 21 21 21 21 22 22 22 22 22 22 22 22 21 21 21 21 21 21 21 22 22 22 22 22 22 22
23 23 23 23 23 23 22 22 22 22 22 23 23 23 23 22 22 22 22 23 22 22 22 22 22 22 22 22 22 22 22 22 22 21 21 21 22 23 23 23 23 23 23
24 24 24 24 24 24 24 24 24 24 24 24 24 24 24 24 24 23 23 24 23 23 23 22 23 22 22 22 23 23 23 23 22 22 22 22 22 23 24 24 24 23 23
26 25 25 25 25 25 25 25 25 25 25 24 24 25 24 24 24 24 25 25 24 24 23 23 23 23 23 23 23 24 24 24 24 23 24 24 24 24 24 25 25 24 24
26 26 26 26 25 25 25 25 25 25 25 25 25 25 25 26 26 26 26 25 25 25 24 24 24 23 23 24 24 25 25 25 25 25 25 25 25 25 25 26 26 26 26
27 27 27 27 27 27 27 26 26 26 26 27 27 27 27 26 25 26 26 26 26 26 25 26 25 25 25 25 26 26 26 26 26 25 25 26 26 26 26 26 27 27 26
29 29 28 28 28 29 29 28 28 27 27 28 28 28 28 27 27 27 27 27 27 27 27 27 27 26 27 27 28 28 28 27 27 27 27 27 27 27 27 27 27 27 27
30 31 31 30 30 30 30 30 30 30 29 29 29 30 29 29 29 28 28 28 29 29 29 29 29 29 29 29 29 28 28 28 28 28 29 29 28 28 28 28 28 28 28
32 32 32 32 32 32 32 31 31 31 31 31 31 31 32 31 31 30 30 31 31 31 31 30 30 30 30 30 29 29 29 29 29 29 29 29 29 29 29 29 29 29 30
33 33 33 33 33 33 33 33 33 34 34 34 33 33 33 33 33 33 32 31 32 32 32 32 32 31 31 30 30 30 30 29 29 29 29 29 29 29 29 29 29 30 30

GEFSMW_500_meanwind_294.txt.gz
Wind_Speed
5 5 5 5 5 5 5 5 5 6 6 6 6 6 7 7 6 7 7 7 7 8 7 7 8 8 8 9 10 10 10 10 11 12 12 12 12 12 12 12 13 13 14
6 6 5 6 6 6 6 6 6 6 6 6 7 7 7 7 7 7 7 8 8 8 9 8 9 9 9 9 9 10 10 11 11 11 12 12 13 13 12 13 13 13 13
7 6 6 6 7 7 7 7 7 7 7 7 7 7 6 6 7 7 8 8 9 10 9 10 10 10 10 10 10 10 10 11 12 12 12 12 13 13 13 13 13 13 13
7 8 7 7 7 7 8 8 8 8 8 8 8 8 7 7 7 8 9 9 10 10 10 10 10 10 10 11 11 11 11 11 12 12 13 13 13 13 13 13 13 13 14
8 9 9 9 8 9 9 9 9 8 9 9 8 8 8 8 8 9 9 10 10 11 11 11 11 11 11 11 11 11 12 12 12 13 13 13 13 13 13 14 14 14 14
9 9 10 10 10 10 10 10 10 10 10 9 9 9 9 9 9 10 10 10 11 11 11 11 12 12 12 11 12 12 13 13 13 14 14 14 15 15 14 15 15 15 15
10 10 11 12 12 11 11 11 11 11 11 10 10 10 10 10 10 11 11 11 11 11 11 11 12 12 12 12 13 13 13 14 14 15 15 15 15 16 16 16 16 16 16
11 11 12 13 13 12 12 12 12 12 12 11 11 11 12 11 11 11 11 12 12 12 12 12 12 12 12 13 14 14 15 15 15 15 15 15 15 16 16 16 17 17 17
12 12 13 14 14 14 13 13 14 14 13 13 13 13 13 13 13 13 12 12 12 12 13 13 13 13 13 14 15 16 16 16 16 16 16 16 16 16 16 16 17 17 17
14 14 14 15 15 15 15 15 15 15 15 14 14 14 14 14 14 14 14 14 14 14 14 14 14 14 15 15 16 16 16 17 17 17 17 17 17 18 18 18 17 17 18
16 16 16 16 16 15 16 17 17 17 16 16 16 16 16 16 16 16 16 15 15 15 15 15 15 16 16 17 17 17 17 18 18 18 18 19 19 19 19 19 19 19 19
17 17 17 17 17 17 17 17 18 18 18 19 19 18 18 18 18 17 17 17 17 17 17 16 16 17 17 17 17 18 18 19 19 19 19 20 20 20 19 20 20 20 19
18 18 17 18 18 18 19 19 19 20 20 20 20 19 19 19 19 19 19 18 18 18 18 18 18 18 18 18 18 19 19 20 20 20 20 20 20 20 20 20 21 21 20
19 19 18 19 19 19 20 21 21 21 21 21 20 20 19 19 19 20 20 20 19 19 19 18 19 19 19 19 19 20 20 20 21 21 21 21 21 21 21 21 21 22 22
21 21 20 20 20 20 21 21 21 22 22 21 21 20 20 20 20 20 20 20 20 20 20 20 20 20 20 20 20 20 20 21 21 21 22 22 22 22 22 22 22 23 23
22 21 20 21 21 20 20 20 21 21 21 21 21 21 21 21 21 21 21 21 21 21 21 21 21 21 21 21 21 22 22 22 22 22 22 23 23 23 23 23 23 23 23
24 24 23 21 21 20 20 20 21 22 22 22 22 22 21 22 22 22 23 23 22 22 22 22 22 23 22 22 22 22 22 23 23 23 23 23 24 24 24 24 24 24 24
26 25 24 22 21 20 21 21 21 22 22 23 22 23 23 23 24 24 24 24 24 24 24 24 24 24 23 23 23 23 23 23 23 24 24 24 24 24 24 24 24 25 24
25 24 24 23 22 21 21 22 23 23 22 23 23 23 23 24 24 24 24 24 25 25 25 25 25 24 24 24 24 24 24 24 24 24 25 25 24 24 24 24 24 25 25
24 23 23 23 23 23 22 22 23 24 23 23 24 24 24 25 25 25 25 25 25 26 26 26 26 26 26 25 25 25 25 25 25 25 26 26 26 26 25 25 25 26 27
24 24 24 23 23 24 24 24 23 23 24 24 24 25 25 26 26 25 25 26 27 27 27 28 28 28 27 27 26 26 26 26 26 27 27 27 27 27 27 27 27 27 27
25 25 24 24 24 25 25 25 25 24 25 26 26 26 26 27 27 27 27 28 28 28 28 28 29 29 29 29 28 28 28 27 27 28 28 28 28 28 28 28 27 27 27
26 26 25 25 26 26 26 26 27 27 27 27 28 28 28 28 28 28 29 29 29 29 29 29 29 30 30 30 30 30 30 30 29 28 29 29 28 28 28 27 27 27 27
27 27 27 27 27 27 28 28 28 28 29 29 29 29 29 29 30 30 30 31 31 31 31 31 31 31 31 31 31 31 31 31 31 30 29 29 29 29 28 28 28 28 28
29 28 28 28 28 28 28 29 29 30 30 30 30 30 30 31 31 31 31 32 32 33 33 33 32 32 32 32 32 31 31 30 30 30 30 30 30 29 29 28 28 28 28
29 29 29 29 29 29 29 29 30 30 31 32 31 30 30 31 32 32 32 33 33 33 34 33 32 32 33 33 32 32 31 31 31 31 31 30 30 30 30 29 29 29 29

GEFSMW_500_meanwind_300.txt.gz
Wind_Speed
6 6 6 6 5 5 6 6 7 7 7 7 7 7 7 7 8 8 8 8 9 9 9 10 9 9 9 9 10 10 10 10 11 11 12 12 12 12 12 12 13 13 14
7 7 7 7 7 6 6 6 7 7 7 7 7 7 8 8 8 8 8 8 9 9 10 10 10 10 10 10 10 10 10 10 11 11 12 12 13 13 13 13 13 14 14
8 8 8 8 7 7 7 7 7 7 7 8 8 8 8 8 8 8 9 9 9 9 10 10 10 10 11 11 11 10 10 11 12 12 12 12 13 13 13 13 13 14 14
9 9 8 8 8 9 9 8 8 8 9 9 9 9 9 9 9 9 9 9 9 10 11 11 11 11 11 12 12 12 12 12 12 12 13 13 13 13 14 14 15 15 15
10 10 10 10 10 10 10 10 10 10 10 10 9 9 10 10 10 10 10 10 10 11 11 11 12 12 12 13 13 13 13 13 13 13 13 14 13 14 14 15 15 16 16
11 11 11 11 11 12 12 11 11 11 11 11 11 10 11 11 11 11 11 11 11 12 12 12 13 13 13 14 14 14 14 14 14 13 14 14 14 14 14 15 15 16 17
12 12 13 13 13 13 13 12 12 12 12 12 12 12 12 12 12 12 13 13 13 13 13 13 13 14 14 14 14 14 15 15 15 14 14 15 15 15 15 15 15 16 16
14 14 14 14 14 14 14 14 14 14 14 13 14 14 14 14 13 14 14 14 14 14 14 13 14 14 15 15 15 15 15 15 15 15 16 16 16 16 16 16 17 17 17
15 15 15 15 15 15 16 16 16 15 15 15 15 15 15 15 15 15 15 15 15 15 15 15 15 15 15 16 15 16 16 16 16 16 17 17 18 18 18 18 19 18 18
16 16 16 16 16 16 17 17 17 17 17 17 17 16 17 17 16 16 16 16 16 16 16 16 16 16 16 16 16 17 17 18 18 18 18 19 19 19 20 20 20 20 19
18 17 17 18 18 18 19 18 18 18 18 18 18 18 18 18 18 18 18 17 17 17 17 17 17 17 18 18 18 19 19 19 20 19 19 20 20 21 21 21 21 21 21
20 20 19 20 20 20 20 20 20 21 20 20 20 20 19 19 19 19 19 18 18 18 18 18 18 18 18 19 20 20 21 21 21 21 21 21 21 22 22 22 22 22 21
21 21 21 21 21 21 21 22 22 22 21 21 20 20 20 20 20 20 20 20 19 19 20 20 19 20 20 20 21 21 21 21 22 22 22 22 22 22 22 22 23 23 22
21 22 22 22 22 22 22 22 22 22 22 21 21 20 20 20 20 20 21 21 21 21 21 21 21 21 21 21 21 22 22 22 22 22 23 23 23 23 23 23 23 23 23
22 23 23 23 23 23 24 23 23 23 22 22 22 22 22 21 22 21 21 21 22 22 22 22 22 22 22 22 23 23 23 23 23 23 24 24 24 24 24 24 24 24 23
23 23 23 23 24 24 24 24 24 24 24 23 23 23 23 23 23 23 23 22 22 22 22 22 23 23 23 24 24 24 24 24 25 25 25 25 25 25 25 25 25 24 24
23 23 23 23 24 24 24 23 23 23 23 23 24 24 24 23 23 23 23 23 23 23 24 24 24 25 25 25 25 25 26 26 26 26 26 26 26 26 26 26 26 26 26
24 24 24 24 24 24 24 23 23 23 23 23 23 23 23 23 23 23 24 24 24 25 25 25 25 26 26 26 27 27 27 27 27 27 28 28 28 28 27 27 28 28 28
24 24 24 25 25 25 25 24 24 24 24 24 24 24 24 24 24 25 25 26 26 26 26 26 27 27 27 27 28 28 28 28 28 29 29 29 29 29 29 29 29 29 29
24 24 24 25 25 25 25 25 25 25 25 25 25 26 25 25 25 26 27 27 28 28 27 28 28 28 28 28 29 29 30 29 29 29 30 30 30 31 30 30 29 29 29
25 25 25 25 25 25 25 25 25 26 26 26 27 27 27 27 26 26 27 28 28 28 28 28 29 29 29 29 29 30 30 30 30 30 29 29 30 30 30 30 29 29 29
26 26 26 26 25 25 25 25 26 27 27 27 27 28 28 28 28 28 27 28 29 29 29 29 29 30 30 30 30 30 29 29 29 29 29 29 29 29 29 29 29 29 29
26 26 26 26 26 26 26 26 27 28 27 28 28 28 28 28 28 28 28 28 29 29 30 30 30 30 30 31 30 30 30 30 30 30 29 29 29 29 29 29 29 30 30
28 27 27 27 27 27 27 27 28 28 29 29 29 29 29 29 29 29 29 29 30 31 31 31 31 31 31 31 31 31 32 32 32 31 30 30 30 30 30 30 30 30 30
28 28 28 27 27 28 28 29 29 29 29 29 29 30 30 31 31 31 31 32 31 31 32 32 32 32 32 32 32 33 33 32 32 32 31 32 31 30 30 30 30 30 30
29 29 28 28 27 28 29 29 30 29 30 30 31 31 31 31 31 32 32 33 33 32 33 33 33 33 32 33 33 33 34 34 34 33 33 32 32 31 30 30 31 31 31

GEFSMW_500_meanwind_306.txt.gz
Wind_Speed
7 7 7 7 7 7 6 6 7 7 7 7 7 7 8 8 8 8 9 9 9 9 10 10 11 11 11 11 11 11 11 11 11 11 12 13 13 13 14 14 14 14 14
8 8 8 9 9 8 8 7 7 7 7 8 8 8 8 8 9 9 9 9 10 10 10 10 10 11 11 11 11 11 11 11 11 12 12 13 13 13 14 14 14 14 14
9 9 9 10 10 10 10 9 9 9 9 9 10 10 10 10 10 10 10 10 11 11 11 11 11 11 11 12 12 12 12 12 12 12 13 14 14 14 13 14 14 14 14
11 11 11 11 11 11 11 11 11 11 11 11 11 11 12 11 11 12 12 12 12 12 13 12 12 12 13 13 13 12 12 12 12 13 13 14 14 14 14 15 15 15 15
12 12 13 12 12 12 13 13 13 13 13 13 13 13 13 13 13 13 13 14 13 13 14 14 14 14 14 14 13 13 13 13 13 14 14 14 15 15 15 15 16 16 16
13 14 14 14 14 14 14 14 15 15 15 15 14 14 14 14 14 14 14 15 15 15 15 14 15 15 15 15 15 15 14 14 15 15 15 15 15 15 16 16 16 17 17
15 15 15 15 15 16 16 16 16 15 16 16 16 16 16 16 16 16 16 16 16 16 15 15 15 16 16 15 15 15 15 15 16 16 16 16 16 16 16 16 16 16 17
15 15 16 16 17 17 17 17 17 17 17 17 18 18 17 17 17 17 17 17 17 17 16 16 16 16 16 16 16 16 16 16 16 16 16 17 17 17 17 17 17 17 17
16 17 17 17 18 18 18 18 19 19 19 18 18 18 18 18 18 18 18 18 18 18 18 17 17 17 17 17 18 18 18 18 17 17 17 17 18 18 18 19 19 18 18
17 18 18 18 18 18 19 19 20 20 20 19 19 19 19 19 19 18 18 18 18 18 18 18 18 18 18 18 19 19 19 19 19 19 19 19 19 19 20 20 20 20 20
18 18 18 19 19 19 19 20 19 19 20 20 20 20 20 20 20 20 19 19 19 18 19 19 19 19 19 19 19 19 19 20 21 21 21 21 21 21 21 21 21 22 22
19 19 19 20 20 20 20 20 20 20 21 21 21 21 21 22 22 22 21 21 21 21 20 20 21 21 21 20 20 20 20 21 21 21 21 21 21 21 22 22 22 23 23
20 20 20 20 21 21 21 21 21 21 21 21 21 21 22 23 24 24 24 23 23 23 22 22 22 22 22 21 21 22 22 22 23 23 23 23 23 23 23 23 24 24 24
21 21 21 21 21 21 22 22 22 22 22 22 23 23 23 24 25 25 25 24 24 24 24 23 23 23 23 23 23 23 23 23 24 24 25 25 25 25 25 25 25 25 25
21 21 21 21 21 22 22 23 23 23 23 23 23 23 24 24 24 24 24 25 25 25 25 25 25 24 24 24 24 24 24 25 25 25 26 26 26 26 26 26 26 26 26
22 22 22 22 22 22 23 23 23 23 23 24 24 24 24 24 25 24 24 25 25 26 26 26 26 26 26 26 25 25 26 26 26 26 26 26 26 26 27 27 27 27 27
23 23 23 23 23 23 23 24 24 24 24 24 24 24 24 24 24 24 25 25 25 26 26 26 26 27 27 26 26 26 26 26 26 27 26 27 27 27 27 27 27 27 27
23 24 24 24 24 24 24 25 25 25 25 24 24 24 24 24 25 25 25 25 25 26 26 27 27 28 28 27 27 27 27 28 28 27 28 28 27 27 27 27 27 26 26
24 24 24 24 24 24 25 25 25 25 25 25 24 24 24 24 24 25 26 27 27 27 27 28 28 28 28 28 29 29 28 28 29 29 29 29 29 28 28 28 27 26 26
24 24 24 24 24 24 24 25 25 25 26 26 25 25 25 25 25 25 26 27 27 27 28 28 28 29 29 30 30 30 29 29 29 29 29 29 30 30 29 29 28 28 28
25 24 24 24 24 24 24 25 25 25 26 26 26 26 26 25 26 26 25 26 27 28 28 28 29 29 30 31 31 31 31 30 30 30 30 30 30 30 30 29 29 29 29
25 25 25 25 25 25 25 25 25 26 26 25 26 26 26 26 26 27 27 27 28 29 29 29 29 30 31 31 32 32 32 32 32 31 31 31 30 30 30 29 29 29 29
25 25 25 26 26 26 26 25 26 26 26 26 27 27 26 26 27 27 28 28 28 28 28 29 30 30 31 32 32 33 33 33 33 33 32 31 31 31 31 31 30 30 29
26 26 26 26 26 27 27 26 26 27 27 27 27 27 27 27 27 28 28 28 28 28 28 29 29 30 30 31 32 33 34 34 33 33 32 32 32 32 32 32 31 31 30
27 27 26 27 27 28 27 27 27 27 28 28 28 27 27 27 28 28 28 28 28 28 28 28 28 28 30 31 32 32 32 32 32 33 33 33 33 32 32 32 32 32 31
27 27 27 27 27 28 28 28 28 28 28 27 27 28 27 26 27 27 28 29 29 28 28 29 29 30 30 31 32 33 32 32 32 32 32 32 32 32 32 32 32 32 32